Weather History for KAUM - April, 2013

Change the Weather History Date:

Thursday, April 25, 2013

  Actual Average (KAEL) Record (KAEL)
Temperature  
Mean Temperature 42 °F -  
Max Temperature 53 °F 60 °F - (-1)
Min Temperature 30 °F 38 °F - (-1)
Degree Days  
Heating Degree Days 24    
Moisture  
Dew Point 27 °F    
Average Humidity 60    
Maximum Humidity 87    
Minimum Humidity 28    
Precipitation  
Precipitation 0.00 in - - ()
Sea Level Pressure  
Sea Level Pressure 30.14 in    
Wind  
Wind Speed 11 mph (WSW)    
Max Wind Speed 21 mph    
Max Gust Speed 29 mph    
Visibility 10 miles    
Events      
Averages and records for this station are not official NWS values.
T = Trace of Precipitation, MM = Missing Value Source: NWS Daily Summary

Daily Weather History Graph

Daily Weather History Graph

Search for Another Location

Airport or City:

Trip Planner

Search our weather history database for the weather conditions in past years. The results will help you decide how hot, cold, wet, or windy it might be!

Date:

Astronomy

Apr. 25, 2013 Rise Set
Actual Time 6:12 AM CDT 8:07 PM CDT
Civil Twilight 5:41 AM CDT 8:38 PM CDT
Nautical Twilight 5:04 AM CDT 9:16 PM CDT
Astronomical Twilight 4:23 AM CDT 9:57 PM CDT
Moon 8:22 PM CDT (4/25) 5:56 AM CDT (4/25)
Length of Visible Light 14h 56m
Length of Day
13h 54m
Full, 100% of the Moon is Illuminated
Apr 25
Full
Apr 25
Full
May 2
Last Quarter
May 9
New
May 17
First Quarter

Hourly Weather History & Observations

Time (CDT) Temp. Windchill Dew Point Humidity Pressure Visibility Wind Dir Wind Speed Gust Speed Precip Events Conditions
12:16 AM 37.4 °F 29.8 °F 33.8 °F 87% 30.01 in 10.0 mi West 11.5 mph 17.3 mph N/A   Overcast
12:35 AM 37.4 °F 30.3 °F 32.0 °F 81% 30.01 in 10.0 mi West 10.4 mph 20.7 mph N/A   Overcast
12:55 AM 35.6 °F 25.9 °F 30.2 °F 81% 30.02 in 10.0 mi West 16.1 mph 25.3 mph N/A   Overcast
1:16 AM 35.6 °F 25.5 °F 30.2 °F 81% 30.03 in 10.0 mi WNW 17.3 mph 25.3 mph N/A   Overcast
1:35 AM 35.6 °F 24.8 °F 30.2 °F 81% 30.03 in 10.0 mi WNW 19.6 mph 26.5 mph N/A   Overcast
1:55 AM 33.8 °F 22.2 °F 28.4 °F 81% 30.04 in 10.0 mi WNW 20.7 mph 27.6 mph N/A   Overcast
2:16 AM 33.8 °F 23.5 °F 28.4 °F 81% 30.04 in 10.0 mi WNW 16.1 mph 28.8 mph N/A   Scattered Clouds
2:35 AM 33.8 °F 24.8 °F 28.4 °F 81% 30.05 in 10.0 mi WNW 12.7 mph 18.4 mph N/A   Scattered Clouds
2:55 AM 33.8 °F 22.8 °F 26.6 °F 75% 30.06 in 10.0 mi WNW 18.4 mph 25.3 mph N/A   Scattered Clouds
3:16 AM 33.8 °F 24.3 °F 26.6 °F 75% 30.06 in 10.0 mi West 13.8 mph 20.7 mph N/A   Mostly Cloudy
3:35 AM 32.0 °F 21.6 °F 26.6 °F 80% 30.06 in 10.0 mi West 15.0 mph - N/A   Scattered Clouds
3:55 AM 33.8 °F 24.8 °F 26.6 °F 75% 30.07 in 10.0 mi WNW 12.7 mph 20.7 mph N/A   Mostly Cloudy
4:16 AM 33.8 °F 23.2 °F 26.6 °F 75% 30.08 in 10.0 mi WNW 17.3 mph 26.5 mph N/A   Overcast
4:35 AM 32.0 °F 22.1 °F 26.6 °F 80% 30.08 in 10.0 mi West 13.8 mph 18.4 mph N/A   Overcast
4:55 AM 32.0 °F 22.5 °F 24.8 °F 75% 30.09 in 10.0 mi WNW 12.7 mph 23.0 mph N/A   Overcast
5:16 AM 30.2 °F 18.9 °F 24.8 °F 80% 30.10 in 10.0 mi West 16.1 mph 20.7 mph N/A   Scattered Clouds
5:35 AM 30.2 °F 20.2 °F 24.8 °F 80% 30.10 in 10.0 mi WNW 12.7 mph 20.7 mph N/A   Clear
5:56 AM 30.2 °F 20.2 °F 24.8 °F 80% 30.11 in 10.0 mi WNW 12.7 mph 18.4 mph N/A   Scattered Clouds
6:16 AM 30.2 °F 20.8 °F 24.8 °F 80% 30.12 in 10.0 mi WNW 11.5 mph 18.4 mph N/A   Scattered Clouds
6:35 AM 30.2 °F 21.3 °F 24.8 °F 80% 30.12 in 10.0 mi WNW 10.4 mph - N/A   Scattered Clouds
6:56 AM 30.2 °F 21.3 °F 24.8 °F 80% 30.14 in 10.0 mi WNW 10.4 mph - N/A   Mostly Cloudy
7:16 AM 30.2 °F 21.3 °F 24.8 °F 80% 30.15 in 10.0 mi West 10.4 mph 17.3 mph N/A   Overcast
7:35 AM 30.2 °F 21.3 °F 24.8 °F 80% 30.16 in 10.0 mi WNW 10.4 mph - N/A   Overcast
7:56 AM 32.0 °F 23.0 °F 24.8 °F 75% 30.17 in 10.0 mi WNW 11.5 mph 18.4 mph N/A   Scattered Clouds
8:15 AM 32.0 °F 22.5 °F 24.8 °F 75% 30.19 in 10.0 mi WNW 12.7 mph - N/A   Scattered Clouds
8:36 AM 33.8 °F 26.4 °F 26.6 °F 75% 30.19 in 10.0 mi West 9.2 mph - N/A   Scattered Clouds
8:55 AM 33.8 °F 25.3 °F 26.6 °F 75% 30.20 in 10.0 mi West 11.5 mph - N/A   Clear
9:16 AM 33.8 °F 24.3 °F 26.6 °F 75% 30.20 in 10.0 mi WNW 13.8 mph - N/A   Scattered Clouds
9:36 AM 35.6 °F 28.6 °F 26.6 °F 70% 30.20 in 10.0 mi West 9.2 mph 18.4 mph N/A   Clear
9:55 AM 35.6 °F 28.0 °F 26.6 °F 70% 30.20 in 10.0 mi WNW 10.4 mph - N/A   Clear
10:16 AM 37.4 °F 30.8 °F 28.4 °F 70% 30.21 in 10.0 mi West 9.2 mph 16.1 mph N/A   Scattered Clouds
10:35 AM 37.4 °F 29.3 °F 26.6 °F 65% 30.21 in 10.0 mi WNW 12.7 mph 17.3 mph N/A   Scattered Clouds
10:56 AM 37.4 °F 30.3 °F 26.6 °F 65% 30.21 in 10.0 mi WNW 10.4 mph - N/A   Clear
11:15 AM 39.2 °F 32.0 °F 28.4 °F 65% 30.22 in 10.0 mi West 11.5 mph - N/A   Clear
11:36 AM 41.0 °F 35.8 °F 28.4 °F 61% 30.22 in 10.0 mi West 8.1 mph - N/A   Scattered Clouds
11:55 AM 41.0 °F 35.2 °F 28.4 °F 61% 30.22 in 10.0 mi West 9.2 mph - N/A   Scattered Clouds
12:15 PM 42.8 °F 37.0 °F 28.4 °F 57% 30.22 in 10.0 mi WNW 10.4 mph - N/A   Clear
12:36 PM 42.8 °F 38.6 °F 28.4 °F 57% 30.22 in 10.0 mi WSW 6.9 mph - N/A   Scattered Clouds
12:55 PM 42.8 °F 40.1 °F 28.4 °F 57% 30.21 in 10.0 mi West 4.6 mph - N/A   Scattered Clouds
1:16 PM 44.6 °F 42.2 °F 24.8 °F 46% 30.21 in 10.0 mi West 4.6 mph - N/A   Clear
1:35 PM 44.6 °F 42.2 °F 26.6 °F 49% 30.20 in 10.0 mi NW 4.6 mph - N/A   Clear
1:55 PM 46.4 °F 44.3 °F 21.2 °F 37% 30.20 in 10.0 mi West 4.6 mph - N/A   Clear
2:16 PM 46.4 °F 42.9 °F 19.4 °F 34% 30.20 in 10.0 mi WSW 6.9 mph - N/A   Clear
2:35 PM 48.2 °F - 17.6 °F 30% 30.19 in 10.0 mi West 5.8 mph - N/A   Clear
2:55 PM 48.2 °F - 17.6 °F 30% 30.19 in 10.0 mi West 6.9 mph - N/A   Clear
3:16 PM 48.2 °F - 17.6 °F 30% 30.19 in 10.0 mi WSW 10.4 mph - N/A   Clear
3:35 PM 50.0 °F - 17.6 °F 28% 30.19 in 10.0 mi WSW 6.9 mph - N/A   Clear
3:56 PM 50.0 °F - 17.6 °F 28% 30.18 in 10.0 mi SW 8.1 mph - N/A   Clear
4:15 PM 51.8 °F - 19.4 °F 28% 30.18 in 10.0 mi WSW 11.5 mph 16.1 mph N/A   Clear
4:36 PM 51.8 °F - 23.0 °F 33% 30.17 in 10.0 mi WSW 5.8 mph 10.4 mph N/A   Clear
4:55 PM 51.8 °F - 21.2 °F 30% 30.16 in 10.0 mi WSW 6.9 mph - N/A   Clear
5:15 PM 51.8 °F - 24.8 °F 35% 30.15 in 10.0 mi South 5.8 mph - N/A   Clear
5:35 PM 51.8 °F - 21.2 °F 30% 30.15 in 10.0 mi SSW 3.5 mph - N/A   Clear
5:55 PM 53.6 °F - 24.8 °F 33% 30.15 in 10.0 mi South 8.1 mph - N/A   Clear
6:16 PM 51.8 °F - 24.8 °F 35% 30.15 in 10.0 mi South 6.9 mph - N/A   Clear
6:35 PM 51.8 °F - 24.8 °F 35% 30.15 in 10.0 mi SSE 4.6 mph - N/A   Clear
6:55 PM 51.8 °F - 26.6 °F 38% 30.14 in 10.0 mi SSE 4.6 mph - N/A   Clear
7:16 PM 51.8 °F - 26.6 °F 38% 30.14 in 10.0 mi South 3.5 mph - N/A   Clear
7:36 PM 51.8 °F - 28.4 °F 41% 30.13 in 10.0 mi SSE 3.5 mph - N/A   Clear
7:55 PM 50.0 °F - 28.4 °F 43% 30.13 in 10.0 mi SSE 4.6 mph - N/A   Clear
8:16 PM 48.2 °F - 33.8 °F 58% 30.14 in 10.0 mi SE 5.8 mph - N/A   Clear
8:35 PM 46.4 °F 43.5 °F 33.8 °F 62% 30.14 in 10.0 mi SE 5.8 mph - N/A   Clear
8:56 PM 46.4 °F 42.4 °F 33.8 °F 62% 30.13 in 10.0 mi ESE 8.1 mph - N/A   Clear
9:16 PM 44.6 °F 40.2 °F 33.8 °F 66% 30.14 in 10.0 mi SE 8.1 mph - N/A   Clear
9:35 PM 44.6 °F 40.7 °F 33.8 °F 66% 30.14 in 10.0 mi SE 6.9 mph - N/A   Clear
9:56 PM 44.6 °F 39.7 °F 33.8 °F 66% 30.13 in 10.0 mi SE 9.2 mph - N/A   Clear
10:15 PM 42.8 °F 38.0 °F 33.8 °F 70% 30.13 in 10.0 mi SE 8.1 mph - N/A   Clear
10:36 PM 44.6 °F 40.2 °F 30.2 °F 57% 30.13 in 10.0 mi SE 8.1 mph - N/A   Clear
10:56 PM 46.4 °F 41.5 °F 30.2 °F 53% 30.12 in 10.0 mi SE 10.4 mph - N/A   Clear
11:15 PM 46.4 °F 41.1 °F 28.4 °F 50% 30.11 in 10.0 mi SE 11.5 mph 16.1 mph N/A   Clear
11:36 PM 46.4 °F 41.1 °F 28.4 °F 50% 30.10 in 10.0 mi SSE 11.5 mph - N/A   Scattered Clouds
11:56 PM 46.4 °F 41.1 °F 28.4 °F 50% 30.11 in 10.0 mi SSE 11.5 mph 17.3 mph N/A   Mostly Cloudy